Location: �terpigny
(49.8910°N, 2.9249°E)
Time: 12:27:21
(UTC+00:00)

UWE-3 - Pass Details

Date: 28 June 2022
Orbit: 583 x 677 km, 97.7° (Epoch: 14 August)

Event Time Altitude Azimuth Distance (km) Brightness Sun altitude
Rises 02:46:15 0° 20° (NNE) 2,867 ? -7.2°
Reaches altitude 10° 02:48:32 10° 28° (NNE) 1,972 ? -7.0°
Maximum altitude 02:52:33 38° 97° (E) 953 ? -6.6°
Drops below altitude 10° 02:56:38 10° 166° (SSE) 2,009 ? -6.1°
Sets 02:58:58 0° 175° (S) 2,929 ? -5.9°
